Time,TemperatureF,DewpointF,PressureIn,WindDirection,WindDirectionDegrees,WindSpeedMPH,WindSpeedGustMPH,Humidity,HourlyPrecipIn,Conditions,Clouds,dailyrainin,SoftwareType,DateUTC
2013-03-19 00:00:00,66.4,48.3,29.88,ENE,67,8.0,9.0,52,0.00,,,0.00,VWS V14.01,2013-03-19 05:00:00,
2013-03-19 00:05:00,66.1,48.0,29.88,NE,55,3.0,10.0,52,0.00,,,0.00,VWS V14.01,2013-03-19 05:05:00,
2013-03-19 00:10:00,66.0,48.4,29.88,NE,39,9.0,14.0,53,0.00,,,0.00,VWS V14.01,2013-03-19 05:10:00,
2013-03-19 00:15:00,65.8,48.2,29.88,ESE,114,2.0,14.0,53,0.00,,,0.00,VWS V14.01,2013-03-19 05:15:00,
2013-03-19 00:20:00,65.7,48.1,29.88,ENE,63,5.0,14.0,53,0.00,,,0.00,VWS V14.01,2013-03-19 05:20:00,
2013-03-19 00:25:00,65.5,47.9,29.88,NNE,30,5.0,14.0,53,0.00,,,0.00,VWS V14.01,2013-03-19 05:25:00,
2013-03-19 00:30:00,65.3,48.2,29.88,NE,56,5.0,6.0,54,0.00,,,0.00,VWS V14.01,2013-03-19 05:30:00,
2013-03-19 00:35:00,65.0,48.0,29.88,NE,55,5.0,8.0,54,0.00,,,0.00,VWS V14.01,2013-03-19 05:35:00,
2013-03-19 00:40:00,64.7,48.2,29.88,NE,55,9.0,9.0,55,0.00,,,0.00,VWS V14.01,2013-03-19 05:40:00,
2013-03-19 00:45:00,64.5,48.0,29.88,NNE,16,4.0,9.0,55,0.00,,,0.00,VWS V14.01,2013-03-19 05:45:00,
2013-03-19 00:50:00,64.3,47.8,29.89,NE,55,4.0,11.0,55,0.00,,,0.00,VWS V14.01,2013-03-19 05:50:00,
2013-03-19 00:55:00,64.2,47.7,29.89,NE,44,6.0,11.0,55,0.00,,,0.00,VWS V14.01,2013-03-19 05:55:00,
2013-03-19 01:00:00,64.1,47.6,29.89,NE,46,9.0,9.0,55,0.00,,,0.00,VWS V14.01,2013-03-19 06:00:00,
2013-03-19 01:05:00,64.0,47.5,29.89,East,97,4.0,10.0,55,0.00,,,0.00,VWS V14.01,2013-03-19 06:05:00,
2013-03-19 01:10:00,63.7,47.7,29.89,NE,34,5.0,10.0,56,0.00,,,0.00,VWS V14.01,2013-03-19 06:10:00,
2013-03-19 01:15:00,63.6,47.2,29.89,NE,51,6.0,10.0,55,0.00,,,0.00,VWS V14.01,2013-03-19 06:15:00,
2013-03-19 01:20:00,63.4,47.5,29.89,NE,47,6.0,10.0,56,0.00,,,0.00,VWS V14.01,2013-03-19 06:20:00,
2013-03-19 01:25:00,63.2,47.3,29.89,NNE,26,6.0,10.0,56,0.00,,,0.00,VWS V14.01,2013-03-19 06:25:00,
2013-03-19 01:30:00,63.2,47.3,29.88,NE,54,6.0,6.0,56,0.00,,,0.00,VWS V14.01,2013-03-19 06:30:00,
2013-03-19 01:35:00,63.1,47.2,29.89,North,6,8.0,10.0,56,0.00,,,0.00,VWS V14.01,2013-03-19 06:35:00,
2013-03-19 01:40:00,63.0,47.1,29.89,NE,44,9.0,10.0,56,0.00,,,0.00,VWS V14.01,2013-03-19 06:40:00,
2013-03-19 01:45:00,62.8,46.9,29.89,NE,41,7.0,10.0,56,0.00,,,0.00,VWS V14.01,2013-03-19 06:45:00,
2013-03-19 01:50:00,62.6,46.7,29.89,ENE,63,5.0,12.0,56,0.00,,,0.00,VWS V14.01,2013-03-19 06:50:00,
2013-03-19 01:55:00,62.3,46.4,29.89,NE,56,7.0,12.0,56,0.00,,,0.00,VWS V14.01,2013-03-19 06:55:00,
2013-03-19 02:00:00,62.0,46.6,29.89,NE,46,9.0,9.0,57,0.00,,,0.00,VWS V14.01,2013-03-19 07:00:00,
2013-03-19 02:05:00,61.8,46.4,29.89,East,91,7.0,13.0,57,0.00,,,0.00,VWS V14.01,2013-03-19 07:05:00,
2013-03-19 02:10:00,61.6,46.2,29.89,ENE,60,5.0,13.0,57,0.00,,,0.00,VWS V14.01,2013-03-19 07:10:00,
2013-03-19 02:15:00,61.4,46.0,29.89,ENE,60,7.0,13.0,57,0.00,,,0.00,VWS V14.01,2013-03-19 07:15:00,
2013-03-19 02:20:00,61.1,46.2,29.89,NE,49,8.0,13.0,58,0.00,,,0.00,VWS V14.01,2013-03-19 07:20:00,
2013-03-19 02:25:00,60.9,46.0,29.89,ENE,58,6.0,18.0,58,0.00,,,0.00,VWS V14.01,2013-03-19 07:25:00,
2013-03-19 02:30:00,60.7,46.3,29.89,ENE,57,4.0,5.0,59,0.00,,,0.00,VWS V14.01,2013-03-19 07:30:00,
2013-03-19 02:35:00,60.6,46.2,29.89,ENE,60,3.0,11.0,59,0.00,,,0.00,VWS V14.01,2013-03-19 07:35:00,
2013-03-19 02:40:00,60.4,46.0,29.88,NE,39,6.0,11.0,59,0.00,,,0.00,VWS V14.01,2013-03-19 07:40:00,
2013-03-19 02:45:00,60.3,45.9,29.89,North,360,4.0,11.0,59,0.00,,,0.00,VWS V14.01,2013-03-19 07:45:00,
2013-03-19 02:50:00,60.1,45.7,29.89,NNW,347,5.0,11.0,59,0.00,,,0.00,VWS V14.01,2013-03-19 07:50:00,
2013-03-19 02:55:00,60.0,46.1,29.89,NNE,19,6.0,11.0,60,0.00,,,0.00,VWS V14.01,2013-03-19 07:55:00,
2013-03-19 03:00:00,59.9,46.0,29.89,East,79,4.0,11.0,60,0.00,,,0.00,VWS V14.01,2013-03-19 08:00:00,
2013-03-19 03:05:00,59.8,45.9,29.89,ENE,60,7.0,10.0,60,0.00,,,0.00,VWS V14.01,2013-03-19 08:05:00,
2013-03-19 03:10:00,59.8,45.9,29.89,NE,37,9.0,13.0,60,0.00,,,0.00,VWS V14.01,2013-03-19 08:10:00,
2013-03-19 03:15:00,59.8,45.9,29.89,NE,46,9.0,16.0,60,0.00,,,0.00,VWS V14.01,2013-03-19 08:15:00,
2013-03-19 03:20:00,59.6,45.7,29.89,North,359,11.0,16.0,60,0.00,,,0.00,VWS V14.01,2013-03-19 08:20:00,
2013-03-19 03:25:00,59.5,45.6,29.89,East,87,5.0,16.0,60,0.00,,,0.00,VWS V14.01,2013-03-19 08:25:00,
2013-03-19 03:30:00,59.4,46.0,29.89,ENE,72,5.0,16.0,61,0.00,,,0.00,VWS V14.01,2013-03-19 08:30:00,
2013-03-19 03:35:00,59.2,45.8,29.90,ENE,57,7.0,10.0,61,0.00,,,0.00,VWS V14.01,2013-03-19 08:35:00,
2013-03-19 03:40:00,59.1,45.7,29.90,NNW,330,4.0,10.0,61,0.00,,,0.00,VWS V14.01,2013-03-19 08:40:00,
2013-03-19 03:45:00,59.0,45.6,29.90,NE,40,5.0,10.0,61,0.00,,,0.00,VWS V14.01,2013-03-19 08:45:00,
2013-03-19 03:50:00,58.8,45.8,29.90,NNE,15,12.0,12.0,62,0.00,,,0.00,VWS V14.01,2013-03-19 08:50:00,
2013-03-19 03:55:00,58.8,45.8,29.91,NNE,33,3.0,12.0,62,0.00,,,0.00,VWS V14.01,2013-03-19 08:55:00,
2013-03-19 04:00:00,58.6,45.6,29.90,NE,52,7.0,12.0,62,0.00,,,0.00,VWS V14.01,2013-03-19 09:00:00,
2013-03-19 04:05:00,58.4,45.5,29.90,NE,37,2.0,8.0,62,0.00,,,0.00,VWS V14.01,2013-03-19 09:05:00,
2013-03-19 04:10:00,58.3,45.8,29.90,NE,42,2.0,8.0,63,0.00,,,0.00,VWS V14.01,2013-03-19 09:10:00,
2013-03-19 04:15:00,58.1,45.6,29.90,ENE,72,3.0,8.0,63,0.00,,,0.00,VWS V14.01,2013-03-19 09:15:00,
2013-03-19 04:20:00,58.0,45.5,29.90,NNE,20,3.0,8.0,63,0.00,,,0.00,VWS V14.01,2013-03-19 09:20:00,
2013-03-19 04:25:00,57.7,45.6,29.90,NE,36,3.0,8.0,64,0.00,,,0.00,VWS V14.01,2013-03-19 09:25:00,
2013-03-19 04:30:00,57.6,45.5,29.90,NE,50,3.0,8.0,64,0.00,,,0.00,VWS V14.01,2013-03-19 09:30:00,
2013-03-19 04:35:00,57.5,45.4,29.90,ENE,72,2.0,4.0,64,0.00,,,0.00,VWS V14.01,2013-03-19 09:35:00,
2013-03-19 04:40:00,57.5,45.4,29.90,NE,51,1.0,5.0,64,0.00,,,0.00,VWS V14.01,2013-03-19 09:40:00,
2013-03-19 04:45:00,57.3,45.2,29.90,NE,34,4.0,5.0,64,0.00,,,0.00,VWS V14.01,2013-03-19 09:45:00,
2013-03-19 04:50:00,57.2,45.2,29.90,North,356,1.0,6.0,64,0.00,,,0.00,VWS V14.01,2013-03-19 09:50:00,
2013-03-19 04:55:00,57.2,45.6,29.89,NNW,344,1.0,7.0,65,0.00,,,0.00,VWS V14.01,2013-03-19 09:55:00,
2013-03-19 05:00:00,57.1,45.5,29.89,ENE,65,2.0,7.0,65,0.00,,,0.00,VWS V14.01,2013-03-19 10:00:00,
2013-03-19 05:05:00,57.0,45.4,29.89,NNE,33,2.0,6.0,65,0.00,,,0.00,VWS V14.01,2013-03-19 10:05:00,
2013-03-19 05:10:00,57.0,45.4,29.89,NNE,27,5.0,8.0,65,0.00,,,0.00,VWS V14.01,2013-03-19 10:10:00,
2013-03-19 05:14:00,57.0,45.4,29.89,NE,52,5.0,8.0,65,0.00,,,0.00,VWS V14.01,2013-03-19 10:14:00,
2013-03-19 05:19:00,57.0,45.4,29.88,NE,51,2.0,8.0,65,0.00,,,0.00,VWS V14.01,2013-03-19 10:19:00,
2013-03-19 05:24:00,56.9,45.3,29.88,NE,49,3.0,8.0,65,0.00,,,0.00,VWS V14.01,2013-03-19 10:24:00,
2013-03-19 05:29:00,56.8,45.2,29.88,NNE,22,2.0,8.0,65,0.00,,,0.00,VWS V14.01,2013-03-19 10:29:00,
2013-03-19 05:34:00,56.8,45.2,29.88,NE,48,3.0,9.0,65,0.00,,,0.00,VWS V14.01,2013-03-19 10:34:00,
2013-03-19 05:39:00,56.8,45.2,29.88,ENE,60,3.0,9.0,65,0.00,,,0.00,VWS V14.01,2013-03-19 10:39:00,
2013-03-19 05:44:00,56.8,45.2,29.89,NNE,29,3.0,9.0,65,0.00,,,0.00,VWS V14.01,2013-03-19 10:44:00,
2013-03-19 05:49:00,56.8,45.2,29.89,NNE,27,3.0,9.0,65,0.00,,,0.00,VWS V14.01,2013-03-19 10:49:00,
2013-03-19 05:54:00,56.7,45.5,29.89,NE,34,4.0,9.0,66,0.00,,,0.00,VWS V14.01,2013-03-19 10:54:00,
2013-03-19 05:59:00,56.5,45.3,29.89,NE,51,1.0,9.0,66,0.00,,,0.00,VWS V14.01,2013-03-19 10:59:00,
2013-03-19 06:04:00,56.2,45.0,29.89,NNE,16,3.0,6.0,66,0.00,,,0.00,VWS V14.01,2013-03-19 11:04:00,
2013-03-19 06:09:00,56.0,45.2,29.89,NE,46,5.0,6.0,67,0.00,,,0.00,VWS V14.01,2013-03-19 11:09:00,
2013-03-19 06:14:00,55.9,45.1,29.89,NE,53,3.0,8.0,67,0.00,,,0.00,VWS V14.01,2013-03-19 11:14:00,
2013-03-19 06:19:00,55.8,45.0,29.90,NE,53,3.0,8.0,67,0.00,,,0.00,VWS V14.01,2013-03-19 11:19:00,
2013-03-19 06:24:00,55.7,44.9,29.90,NE,39,4.0,8.0,67,0.00,,,0.00,VWS V14.01,2013-03-19 11:24:00,
2013-03-19 06:29:00,55.8,45.0,29.90,NE,34,3.0,8.0,67,0.00,,,0.00,VWS V14.01,2013-03-19 11:29:00,
2013-03-19 06:34:00,55.9,45.5,29.89,NE,38,5.0,7.0,68,0.00,,,0.00,VWS V14.01,2013-03-19 11:34:00,
2013-03-19 06:39:00,55.9,45.1,29.90,NNE,26,2.0,7.0,67,0.00,,,0.00,VWS V14.01,2013-03-19 11:39:00,
2013-03-19 06:44:00,55.8,45.4,29.90,NE,53,3.0,7.0,68,0.00,,,0.00,VWS V14.01,2013-03-19 11:44:00,
2013-03-19 06:49:00,55.8,45.4,29.90,NNE,18,2.0,7.0,68,0.00,,,0.00,VWS V14.01,2013-03-19 11:49:00,
2013-03-19 06:54:00,55.7,45.3,29.90,NE,47,3.0,7.0,68,0.00,,,0.00,VWS V14.01,2013-03-19 11:54:00,
2013-03-19 06:59:00,55.7,45.3,29.90,NE,49,3.0,7.0,68,0.00,,,0.00,VWS V14.01,2013-03-19 11:59:00,
2013-03-19 07:04:00,55.6,45.2,29.91,ENE,58,4.0,5.0,68,0.00,,,0.00,VWS V14.01,2013-03-19 12:04:00,
2013-03-19 07:09:00,55.5,45.5,29.91,North,349,4.0,7.0,69,0.00,,,0.00,VWS V14.01,2013-03-19 12:09:00,
2013-03-19 07:14:00,55.5,45.5,29.91,NE,51,4.0,7.0,69,0.00,,,0.00,VWS V14.01,2013-03-19 12:14:00,
2013-03-19 07:19:00,55.5,45.5,29.91,NNE,33,3.0,7.0,69,0.00,,,0.00,VWS V14.01,2013-03-19 12:19:00,
2013-03-19 07:24:00,55.7,45.7,29.91,NNE,20,2.0,7.0,69,0.00,,,0.00,VWS V14.01,2013-03-19 12:24:00,
2013-03-19 07:29:00,55.7,45.7,29.91,NE,54,3.0,7.0,69,0.00,,,0.00,VWS V14.01,2013-03-19 12:29:00,
2013-03-19 07:34:00,55.7,45.7,29.91,ENE,66,2.0,6.0,69,0.00,,,0.00,VWS V14.01,2013-03-19 12:34:00,
2013-03-19 07:39:00,55.6,45.6,29.91,NE,36,3.0,6.0,69,0.00,,,0.00,VWS V14.01,2013-03-19 12:39:00,
2013-03-19 07:44:00,55.4,45.8,29.92,NE,40,3.0,6.0,70,0.00,,,0.00,VWS V14.01,2013-03-19 12:44:00,
2013-03-19 07:49:00,55.4,45.8,29.92,NNE,18,5.0,6.0,70,0.00,,,0.00,VWS V14.01,2013-03-19 12:49:00,
2013-03-19 07:54:00,55.5,45.9,29.92,NE,52,5.0,6.0,70,0.00,,,0.00,VWS V14.01,2013-03-19 12:54:00,
2013-03-19 07:59:00,55.7,46.1,29.92,NNE,23,3.0,6.0,70,0.00,,,0.00,VWS V14.01,2013-03-19 12:59:00,
2013-03-19 08:04:00,55.8,46.2,29.92,NNE,16,2.0,5.0,70,0.00,,,0.00,VWS V14.01,2013-03-19 13:04:00,
2013-03-19 08:09:00,56.0,46.4,29.93,North,1,3.0,7.0,70,0.00,,,0.00,VWS V14.01,2013-03-19 13:09:00,
2013-03-19 08:14:00,56.2,46.2,29.93,NNE,16,2.0,7.0,69,0.00,,,0.00,VWS V14.01,2013-03-19 13:14:00,
2013-03-19 08:19:00,56.4,46.4,29.93,NE,53,3.0,7.0,69,0.00,,,0.00,VWS V14.01,2013-03-19 13:19:00,
2013-03-19 08:24:00,56.6,46.6,29.93,NE,37,1.0,7.0,69,0.00,,,0.00,VWS V14.01,2013-03-19 13:24:00,
2013-03-19 08:29:00,56.9,46.8,29.93,NE,36,3.0,7.0,69,0.00,,,0.00,VWS V14.01,2013-03-19 13:29:00,
2013-03-19 08:34:00,57.3,46.8,29.93,NE,50,2.0,6.0,68,0.00,,,0.00,VWS V14.01,2013-03-19 13:34:00,
2013-03-19 08:39:00,57.8,47.3,29.94,North,349,3.0,8.0,68,0.00,,,0.00,VWS V14.01,2013-03-19 13:39:00,
2013-03-19 08:44:00,58.4,47.5,29.94,NE,38,4.0,8.0,67,0.00,,,0.00,VWS V14.01,2013-03-19 13:44:00,
2013-03-19 08:49:00,59.0,47.7,29.94,NNE,18,1.0,8.0,66,0.00,,,0.00,VWS V14.01,2013-03-19 13:49:00,
2013-03-19 08:54:00,59.6,48.2,29.94,NNE,27,3.0,8.0,66,0.00,,,0.00,VWS V14.01,2013-03-19 13:54:00,
2013-03-19 08:59:00,59.9,48.1,29.94,NNE,27,4.0,8.0,65,0.00,,,0.00,VWS V14.01,2013-03-19 13:59:00,
2013-03-19 09:04:00,60.5,48.7,29.93,NNE,16,2.0,7.0,65,0.00,,,0.00,VWS V14.01,2013-03-19 14:04:00,
2013-03-19 09:09:00,61.1,48.8,29.94,NE,48,4.0,7.0,64,0.00,,,0.00,VWS V14.01,2013-03-19 14:09:00,
2013-03-19 09:14:00,61.5,49.2,29.94,East,80,4.0,7.0,64,0.00,,,0.00,VWS V14.01,2013-03-19 14:14:00,
2013-03-19 09:19:00,62.2,49.9,29.94,NE,53,2.0,7.0,64,0.00,,,0.00,VWS V14.01,2013-03-19 14:19:00,
2013-03-19 09:24:00,63.1,50.3,29.94,NE,51,6.0,8.0,63,0.00,,,0.00,VWS V14.01,2013-03-19 14:24:00,
2013-03-19 09:29:00,63.9,51.1,29.94,NNE,12,4.0,8.0,63,0.00,,,0.00,VWS V14.01,2013-03-19 14:29:00,
2013-03-19 09:34:00,64.3,51.5,29.94,North,359,4.0,8.0,63,0.00,,,0.00,VWS V14.01,2013-03-19 14:34:00,
2013-03-19 09:39:00,64.5,52.1,29.95,NE,55,3.0,9.0,64,0.00,,,0.00,VWS V14.01,2013-03-19 14:39:00,
2013-03-19 09:44:00,64.9,52.5,29.95,East,79,3.0,9.0,64,0.00,,,0.00,VWS V14.01,2013-03-19 14:44:00,
2013-03-19 09:49:00,65.8,52.9,29.95,NE,54,9.0,9.0,63,0.00,,,0.00,VWS V14.01,2013-03-19 14:49:00,
2013-03-19 09:54:00,66.1,53.6,29.95,ENE,77,3.0,9.0,64,0.00,,,0.00,VWS V14.01,2013-03-19 14:54:00,
2013-03-19 09:59:00,66.7,53.7,29.95,NE,54,3.0,9.0,63,0.00,,,0.00,VWS V14.01,2013-03-19 14:59:00,
2013-03-19 10:04:00,67.2,54.6,29.95,East,98,4.0,8.0,64,0.00,,,0.00,VWS V14.01,2013-03-19 15:04:00,
2013-03-19 10:09:00,67.9,54.8,29.95,SE,134,5.0,8.0,63,0.00,,,0.00,VWS V14.01,2013-03-19 15:09:00,
2013-03-19 10:14:00,68.4,55.3,29.95,ENE,77,5.0,8.0,63,0.00,,,0.00,VWS V14.01,2013-03-19 15:14:00,
2013-03-19 10:19:00,68.9,55.4,29.95,NNE,29,5.0,8.0,62,0.00,,,0.00,VWS V14.01,2013-03-19 15:19:00,
2013-03-19 10:24:00,69.0,55.5,29.95,NNE,32,4.0,8.0,62,0.00,,,0.00,VWS V14.01,2013-03-19 15:24:00,
2013-03-19 10:29:00,69.2,55.6,29.95,NE,46,5.0,8.0,62,0.00,,,0.00,VWS V14.01,2013-03-19 15:29:00,
2013-03-19 10:34:00,69.4,55.8,29.95,NE,50,5.0,8.0,62,0.00,,,0.00,VWS V14.01,2013-03-19 15:34:00,
2013-03-19 10:39:00,69.9,56.3,29.95,NE,54,6.0,8.0,62,0.00,,,0.00,VWS V14.01,2013-03-19 15:39:00,
2013-03-19 10:44:00,70.2,56.1,29.94,ENE,64,4.0,8.0,61,0.00,,,0.00,VWS V14.01,2013-03-19 15:44:00,
2013-03-19 10:49:00,70.3,56.7,29.95,ESE,103,5.0,8.0,62,0.00,,,0.00,VWS V14.01,2013-03-19 15:49:00,
2013-03-19 10:54:00,70.5,56.4,29.94,SSE,159,0.0,8.0,61,0.00,,,0.00,VWS V14.01,2013-03-19 15:54:00,
2013-03-19 10:59:00,71.0,56.4,29.94,NE,56,5.0,8.0,60,0.00,,,0.00,VWS V14.01,2013-03-19 15:59:00,
2013-03-19 11:04:00,71.5,56.9,29.95,ENE,62,2.0,5.0,60,0.00,,,0.00,VWS V14.01,2013-03-19 16:04:00,
2013-03-19 11:09:00,71.8,56.7,29.94,North,9,2.0,6.0,59,0.00,,,0.00,VWS V14.01,2013-03-19 16:09:00,
2013-03-19 11:14:00,72.5,57.4,29.94,NE,50,4.0,9.0,59,0.00,,,0.00,VWS V14.01,2013-03-19 16:14:00,
2013-03-19 11:19:00,72.7,57.1,29.95,East,80,4.0,9.0,58,0.00,,,0.00,VWS V14.01,2013-03-19 16:19:00,
2013-03-19 11:24:00,73.4,57.7,29.95,ESE,115,3.0,9.0,58,0.00,,,0.00,VWS V14.01,2013-03-19 16:24:00,
2013-03-19 11:29:00,73.8,57.6,29.95,ESE,114,6.0,9.0,57,0.00,,,0.00,VWS V14.01,2013-03-19 16:29:00,
2013-03-19 11:34:00,73.5,57.8,29.94,ESE,118,5.0,6.0,58,0.00,,,0.00,VWS V14.01,2013-03-19 16:34:00,
2013-03-19 11:39:00,73.9,57.7,29.95,South,190,2.0,6.0,57,0.00,,,0.00,VWS V14.01,2013-03-19 16:39:00,
2013-03-19 11:44:00,74.3,58.1,29.94,SE,129,4.0,9.0,57,0.00,,,0.00,VWS V14.01,2013-03-19 16:44:00,
2013-03-19 11:49:00,74.7,58.0,29.94,SSE,148,6.0,9.0,56,0.00,,,0.00,VWS V14.01,2013-03-19 16:49:00,
2013-03-19 11:54:00,75.1,58.3,29.94,ESE,107,4.0,9.0,56,0.00,,,0.00,VWS V14.01,2013-03-19 16:54:00,
2013-03-19 11:59:00,75.7,58.4,29.94,SSE,165,5.0,9.0,55,0.00,,,0.00,VWS V14.01,2013-03-19 16:59:00,
2013-03-19 12:04:00,75.6,58.3,29.94,SSE,153,2.0,9.0,55,0.00,,,0.00,VWS V14.01,2013-03-19 17:04:00,
2013-03-19 12:09:00,75.9,59.1,29.94,SE,143,2.0,9.0,56,0.00,,,0.00,VWS V14.01,2013-03-19 17:09:00,
2013-03-19 12:14:00,76.3,59.0,29.94,SSW,197,5.0,11.0,55,0.00,,,0.00,VWS V14.01,2013-03-19 17:14:00,
2013-03-19 12:19:00,77.2,59.8,29.94,ESE,122,3.0,11.0,55,0.00,,,0.00,VWS V14.01,2013-03-19 17:19:00,
2013-03-19 12:24:00,77.7,60.3,29.93,WSW,240,6.0,11.0,55,0.00,,,0.00,VWS V14.01,2013-03-19 17:24:00,
2013-03-19 12:29:00,78.3,60.3,29.93,South,177,3.0,11.0,54,0.00,,,0.00,VWS V14.01,2013-03-19 17:29:00,
2013-03-19 12:34:00,78.4,60.4,29.93,SE,139,6.0,10.0,54,0.00,,,0.00,VWS V14.01,2013-03-19 17:34:00,
2013-03-19 12:39:00,78.5,60.5,29.93,SSE,148,3.0,14.0,54,0.00,,,0.00,VWS V14.01,2013-03-19 17:39:00,
2013-03-19 12:44:00,78.2,60.2,29.93,South,187,7.0,14.0,54,0.00,,,0.00,VWS V14.01,2013-03-19 17:44:00,
2013-03-19 12:49:00,78.6,60.6,29.93,ESE,117,5.0,14.0,54,0.00,,,0.00,VWS V14.01,2013-03-19 17:49:00,
2013-03-19 12:54:00,78.4,60.9,29.92,ESE,109,5.0,14.0,55,0.00,,,0.00,VWS V14.01,2013-03-19 17:54:00,
2013-03-19 12:59:00,79.0,61.0,29.92,SSW,193,2.0,14.0,54,0.00,,,0.00,VWS V14.01,2013-03-19 17:59:00,
2013-03-19 13:04:00,79.0,61.0,29.92,SW,226,8.0,13.0,54,0.00,,,0.00,VWS V14.01,2013-03-19 18:04:00,
2013-03-19 13:09:00,78.6,60.1,29.91,SSW,211,7.0,13.0,53,0.00,,,0.00,VWS V14.01,2013-03-19 18:09:00,
2013-03-19 13:14:00,78.5,60.5,29.91,SSE,166,7.0,13.0,54,0.00,,,0.00,VWS V14.01,2013-03-19 18:14:00,
2013-03-19 13:19:00,78.8,61.3,29.91,South,180,2.0,13.0,55,0.00,,,0.00,VWS V14.01,2013-03-19 18:19:00,
2013-03-19 13:24:00,79.3,61.8,29.90,SE,140,3.0,13.0,55,0.00,,,0.00,VWS V14.01,2013-03-19 18:24:00,
2013-03-19 13:29:00,80.1,61.4,29.90,SSE,147,5.0,13.0,53,0.00,,,0.00,VWS V14.01,2013-03-19 18:29:00,
2013-03-19 13:34:00,80.3,61.6,29.89,South,181,6.0,9.0,53,0.00,,,0.00,VWS V14.01,2013-03-19 18:34:00,
2013-03-19 13:39:00,80.3,61.6,29.89,South,188,2.0,12.0,53,0.00,,,0.00,VWS V14.01,2013-03-19 18:39:00,
2013-03-19 13:44:00,80.4,61.7,29.89,South,188,3.0,12.0,53,0.00,,,0.00,VWS V14.01,2013-03-19 18:44:00,
2013-03-19 13:49:00,80.6,62.4,29.89,SE,134,3.0,13.0,54,0.00,,,0.00,VWS V14.01,2013-03-19 18:49:00,
2013-03-19 13:54:00,80.5,61.3,29.89,ESE,112,8.0,13.0,52,0.00,,,0.00,VWS V14.01,2013-03-19 18:54:00,
2013-03-19 13:59:00,80.7,62.5,29.88,SSE,158,8.0,13.0,54,0.00,,,0.00,VWS V14.01,2013-03-19 18:59:00,
2013-03-19 14:04:00,80.8,62.1,29.88,SW,218,4.0,11.0,53,0.00,,,0.00,VWS V14.01,2013-03-19 19:04:00,
2013-03-19 14:09:00,81.2,63.0,29.88,SSW,194,8.0,11.0,54,0.00,,,0.00,VWS V14.01,2013-03-19 19:09:00,
2013-03-19 14:14:00,81.1,63.9,29.87,South,170,3.0,11.0,56,0.00,,,0.00,VWS V14.01,2013-03-19 19:14:00,
2013-03-19 14:19:00,80.7,64.1,29.87,SW,222,8.0,11.0,57,0.00,,,0.00,VWS V14.01,2013-03-19 19:19:00,
2013-03-19 14:24:00,80.5,63.4,29.87,SE,127,6.0,12.0,56,0.00,,,0.00,VWS V14.01,2013-03-19 19:24:00,
2013-03-19 14:29:00,79.7,63.6,29.87,SSW,207,4.0,12.0,58,0.00,,,0.00,VWS V14.01,2013-03-19 19:29:00,
2013-03-19 14:34:00,80.1,64.0,29.87,SSW,201,3.0,13.0,58,0.00,,,0.00,VWS V14.01,2013-03-19 19:34:00,
2013-03-19 14:39:00,80.1,64.0,29.86,ESE,120,6.0,17.0,58,0.00,,,0.00,VWS V14.01,2013-03-19 19:39:00,
2013-03-19 14:44:00,80.3,64.2,29.86,East,90,9.0,17.0,58,0.00,,,0.00,VWS V14.01,2013-03-19 19:44:00,
2013-03-19 14:49:00,80.4,63.8,29.86,ESE,105,10.0,17.0,57,0.00,,,0.00,VWS V14.01,2013-03-19 19:49:00,
2013-03-19 14:54:00,79.7,63.6,29.86,East,89,6.0,17.0,58,0.00,,,0.00,VWS V14.01,2013-03-19 19:54:00,
2013-03-19 14:59:00,80.3,64.2,29.85,SSE,148,9.0,17.0,58,0.00,,,0.00,VWS V14.01,2013-03-19 19:59:00,
2013-03-19 15:04:00,80.7,64.1,29.85,SE,146,4.0,11.0,57,0.00,,,0.00,VWS V14.01,2013-03-19 20:04:00,
2013-03-19 15:09:00,80.1,64.0,29.84,ESE,123,3.0,11.0,58,0.00,,,0.00,VWS V14.01,2013-03-19 20:09:00,
2013-03-19 15:14:00,79.7,64.1,29.84,SE,134,5.0,11.0,59,0.00,,,0.00,VWS V14.01,2013-03-19 20:14:00,
2013-03-19 15:19:00,80.1,64.0,29.84,East,86,6.0,11.0,58,0.00,,,0.00,VWS V14.01,2013-03-19 20:19:00,
2013-03-19 15:24:00,79.6,63.5,29.84,SE,132,6.0,11.0,58,0.00,,,0.00,VWS V14.01,2013-03-19 20:24:00,
2013-03-19 15:29:00,79.6,64.0,29.84,SE,132,2.0,11.0,59,0.00,,,0.00,VWS V14.01,2013-03-19 20:29:00,
2013-03-19 15:34:00,79.1,63.6,29.83,SSW,197,4.0,9.0,59,0.00,,,0.00,VWS V14.01,2013-03-19 20:34:00,
2013-03-19 15:39:00,80.0,64.4,29.83,ESE,105,12.0,12.0,59,0.00,,,0.00,VWS V14.01,2013-03-19 20:39:00,
2013-03-19 15:44:00,80.2,64.1,29.82,SSE,153,2.0,12.0,58,0.00,,,0.00,VWS V14.01,2013-03-19 20:44:00,
2013-03-19 15:49:00,80.7,64.1,29.82,SSE,160,4.0,12.0,57,0.00,,,0.00,VWS V14.01,2013-03-19 20:49:00,
2013-03-19 15:54:00,80.4,64.3,29.82,South,185,5.0,12.0,58,0.00,,,0.00,VWS V14.01,2013-03-19 20:54:00,
2013-03-19 15:59:00,79.9,63.8,29.82,ESE,105,6.0,12.0,58,0.00,,,0.00,VWS V14.01,2013-03-19 20:59:00,
2013-03-19 16:04:00,79.9,63.8,29.81,SE,146,5.0,7.0,58,0.00,,,0.00,VWS V14.01,2013-03-19 21:04:00,
2013-03-19 16:09:00,80.3,64.7,29.81,SSE,158,2.0,7.0,59,0.00,,,0.00,VWS V14.01,2013-03-19 21:09:00,
2013-03-19 16:14:00,80.4,63.8,29.81,ESE,113,4.0,9.0,57,0.00,,,0.00,VWS V14.01,2013-03-19 21:14:00,
2013-03-19 16:19:00,80.4,64.3,29.81,South,177,3.0,9.0,58,0.00,,,0.00,VWS V14.01,2013-03-19 21:19:00,
2013-03-19 16:24:00,80.3,64.2,29.80,SE,136,6.0,12.0,58,0.00,,,0.00,VWS V14.01,2013-03-19 21:24:00,
2013-03-19 16:29:00,80.0,63.9,29.80,ESE,122,8.0,12.0,58,0.00,,,0.00,VWS V14.01,2013-03-19 21:29:00,
2013-03-19 16:34:00,79.6,64.0,29.80,East,79,8.0,8.0,59,0.00,,,0.00,VWS V14.01,2013-03-19 21:34:00,
2013-03-19 16:39:00,79.3,63.7,29.80,SE,142,4.0,8.0,59,0.00,,,0.00,VWS V14.01,2013-03-19 21:39:00,
2013-03-19 16:44:00,79.1,63.6,29.80,SE,134,3.0,10.0,59,0.00,,,0.00,VWS V14.01,2013-03-19 21:44:00,
2013-03-19 16:49:00,79.3,63.7,29.80,East,101,7.0,10.0,59,0.00,,,0.00,VWS V14.01,2013-03-19 21:49:00,
2013-03-19 16:54:00,79.0,63.9,29.79,South,176,2.0,10.0,60,0.00,,,0.00,VWS V14.01,2013-03-19 21:54:00,
2013-03-19 16:59:00,79.2,63.7,29.79,ESE,110,6.0,10.0,59,0.00,,,0.00,VWS V14.01,2013-03-19 21:59:00,
2013-03-19 17:04:00,79.0,63.5,29.79,ESE,113,5.0,7.0,59,0.00,,,0.00,VWS V14.01,2013-03-19 22:04:00,
2013-03-19 17:09:00,79.2,63.2,29.79,East,97,4.0,10.0,58,0.00,,,0.00,VWS V14.01,2013-03-19 22:09:00,
2013-03-19 17:14:00,78.6,63.6,29.79,ENE,76,6.0,10.0,60,0.00,,,0.00,VWS V14.01,2013-03-19 22:14:00,
2013-03-19 17:19:00,78.5,63.5,29.79,ENE,72,3.0,10.0,60,0.00,,,0.00,VWS V14.01,2013-03-19 22:19:00,
2013-03-19 17:24:00,78.7,63.2,29.78,ENE,70,2.0,10.0,59,0.00,,,0.00,VWS V14.01,2013-03-19 22:24:00,
2013-03-19 17:29:00,78.7,62.7,29.78,ESE,103,3.0,10.0,58,0.00,,,0.00,VWS V14.01,2013-03-19 22:29:00,
2013-03-19 17:34:00,78.4,62.9,29.78,NE,37,2.0,6.0,59,0.00,,,0.00,VWS V14.01,2013-03-19 22:34:00,
2013-03-19 17:39:00,78.8,63.3,29.78,ENE,75,6.0,8.0,59,0.00,,,0.00,VWS V14.01,2013-03-19 22:39:00,
2013-03-19 17:44:00,78.9,63.4,29.78,ENE,74,3.0,8.0,59,0.00,,,0.00,VWS V14.01,2013-03-19 22:44:00,
2013-03-19 17:49:00,78.8,63.8,29.78,ENE,57,3.0,8.0,60,0.00,,,0.00,VWS V14.01,2013-03-19 22:49:00,
2013-03-19 17:54:00,78.7,63.2,29.78,ENE,70,3.0,9.0,59,0.00,,,0.00,VWS V14.01,2013-03-19 22:54:00,
2013-03-19 17:59:00,78.4,63.4,29.78,ENE,64,8.0,11.0,60,0.00,,,0.00,VWS V14.01,2013-03-19 22:59:00,
2013-03-19 18:04:00,78.4,63.4,29.78,East,80,4.0,8.0,60,0.00,,,0.00,VWS V14.01,2013-03-19 23:04:00,
2013-03-19 18:09:00,77.9,63.4,29.77,East,89,5.0,8.0,61,0.00,,,0.00,VWS V14.01,2013-03-19 23:09:00,
2013-03-19 18:14:00,77.7,63.2,29.77,ESE,103,5.0,8.0,61,0.00,,,0.00,VWS V14.01,2013-03-19 23:14:00,
2013-03-19 18:19:00,77.5,63.0,29.77,NE,51,4.0,8.0,61,0.00,,,0.00,VWS V14.01,2013-03-19 23:19:00,
2013-03-19 18:24:00,77.3,62.8,29.77,ESE,113,2.0,8.0,61,0.00,,,0.00,VWS V14.01,2013-03-19 23:24:00,
2013-03-19 18:29:00,77.1,62.6,29.78,ESE,103,2.0,8.0,61,0.00,,,0.00,VWS V14.01,2013-03-19 23:29:00,
2013-03-19 18:34:00,76.8,62.8,29.77,East,94,5.0,6.0,62,0.00,,,0.00,VWS V14.01,2013-03-19 23:34:00,
2013-03-19 18:39:00,76.6,62.6,29.78,ENE,58,2.0,7.0,62,0.00,,,0.00,VWS V14.01,2013-03-19 23:39:00,
2013-03-19 18:44:00,76.5,62.1,29.78,NE,56,2.0,7.0,61,0.00,,,0.00,VWS V14.01,2013-03-19 23:44:00,
2013-03-19 18:49:00,76.4,62.4,29.78,East,92,2.0,7.0,62,0.00,,,0.00,VWS V14.01,2013-03-19 23:49:00,
2013-03-19 18:54:00,76.4,62.9,29.78,East,98,2.0,7.0,63,0.00,,,0.00,VWS V14.01,2013-03-19 23:54:00,
2013-03-19 18:59:00,76.2,62.7,29.78,ESE,106,1.0,7.0,63,0.00,,,0.00,VWS V14.01,2013-03-19 23:59:00,
2013-03-19 19:04:00,76.1,62.6,29.79,East,82,3.0,6.0,63,0.00,,,0.00,VWS V14.01,2013-03-20 00:04:00,
2013-03-19 19:09:00,75.9,62.4,29.79,East,96,3.0,6.0,63,0.00,,,0.00,VWS V14.01,2013-03-20 00:09:00,
2013-03-19 19:14:00,75.7,62.2,29.79,NE,44,3.0,6.0,63,0.00,,,0.00,VWS V14.01,2013-03-20 00:14:00,
2013-03-19 19:19:00,75.7,62.2,29.80,East,79,2.0,6.0,63,0.00,,,0.00,VWS V14.01,2013-03-20 00:19:00,
2013-03-19 19:24:00,75.5,62.5,29.80,ENE,58,2.0,6.0,64,0.00,,,0.00,VWS V14.01,2013-03-20 00:24:00,
2013-03-19 19:29:00,75.2,62.2,29.81,NE,51,0.0,6.0,64,0.00,,,0.00,VWS V14.01,2013-03-20 00:29:00,
2013-03-19 19:34:00,74.8,62.3,29.81,NE,43,1.0,2.0,65,0.00,,,0.00,VWS V14.01,2013-03-20 00:34:00,
2013-03-19 19:39:00,74.6,62.5,29.82,NNE,25,1.0,4.0,66,0.00,,,0.00,VWS V14.01,2013-03-20 00:39:00,
2013-03-19 19:44:00,74.7,62.6,29.82,ENE,58,2.0,5.0,66,0.00,,,0.00,VWS V14.01,2013-03-20 00:44:00,
2013-03-19 19:49:00,74.5,62.8,29.82,ENE,63,3.0,6.0,67,0.00,,,0.00,VWS V14.01,2013-03-20 00:49:00,
2013-03-19 19:54:00,74.4,62.7,29.82,NE,45,1.0,6.0,67,0.00,,,0.00,VWS V14.01,2013-03-20 00:54:00,
2013-03-19 19:59:00,74.3,63.1,29.82,ENE,60,3.0,6.0,68,0.00,,,0.00,VWS V14.01,2013-03-20 00:59:00,
2013-03-19 20:04:00,74.1,62.9,29.82,ENE,57,2.0,5.0,68,0.00,,,0.00,VWS V14.01,2013-03-20 01:04:00,
2013-03-19 20:09:00,73.9,62.7,29.81,NE,54,2.0,5.0,68,0.00,,,0.00,VWS V14.01,2013-03-20 01:09:00,
2013-03-19 20:14:00,73.8,62.6,29.81,NE,55,5.0,5.0,68,0.00,,,0.00,VWS V14.01,2013-03-20 01:14:00,
2013-03-19 20:19:00,73.8,62.6,29.81,ENE,68,2.0,7.0,68,0.00,,,0.00,VWS V14.01,2013-03-20 01:19:00,
2013-03-19 20:24:00,73.7,62.9,29.82,ENE,57,3.0,7.0,69,0.00,,,0.00,VWS V14.01,2013-03-20 01:24:00,
2013-03-19 20:29:00,73.5,62.7,29.82,ENE,64,3.0,7.0,69,0.00,,,0.00,VWS V14.01,2013-03-20 01:29:00,
2013-03-19 20:34:00,73.4,62.6,29.83,ENE,68,2.0,6.0,69,0.00,,,0.00,VWS V14.01,2013-03-20 01:34:00,
2013-03-19 20:39:00,73.3,62.5,29.82,NNE,30,3.0,6.0,69,0.00,,,0.00,VWS V14.01,2013-03-20 01:39:00,
2013-03-19 20:44:00,73.1,62.7,29.82,ENE,58,2.0,8.0,70,0.00,,,0.00,VWS V14.01,2013-03-20 01:44:00,
2013-03-19 20:49:00,73.0,62.7,29.82,NNE,32,2.0,8.0,70,0.00,,,0.00,VWS V14.01,2013-03-20 01:49:00,
2013-03-19 20:54:00,72.8,62.5,29.82,NE,56,3.0,8.0,70,0.00,,,0.00,VWS V14.01,2013-03-20 01:54:00,
2013-03-19 20:59:00,72.8,62.5,29.82,East,79,5.0,8.0,70,0.00,,,0.00,VWS V14.01,2013-03-20 01:59:00,
2013-03-19 21:04:00,72.7,62.4,29.83,ENE,58,3.0,7.0,70,0.00,,,0.00,VWS V14.01,2013-03-20 02:04:00,
2013-03-19 21:09:00,72.6,62.3,29.83,NE,37,4.0,7.0,70,0.00,,,0.00,VWS V14.01,2013-03-20 02:09:00,
2013-03-19 21:14:00,72.5,62.2,29.83,NE,56,6.0,11.0,70,0.00,,,0.00,VWS V14.01,2013-03-20 02:14:00,
2013-03-19 21:19:00,72.3,62.0,29.83,NNW,328,3.0,11.0,70,0.00,,,0.00,VWS V14.01,2013-03-20 02:19:00,
2013-03-19 21:24:00,72.2,61.9,29.83,ENE,59,3.0,11.0,70,0.00,,,0.00,VWS V14.01,2013-03-20 02:24:00,
2013-03-19 21:29:00,72.1,61.8,29.84,NE,44,6.0,11.0,70,0.00,,,0.00,VWS V14.01,2013-03-20 02:29:00,
2013-03-19 21:34:00,72.1,61.8,29.84,NNE,19,4.0,5.0,70,0.00,,,0.00,VWS V14.01,2013-03-20 02:34:00,
2013-03-19 21:39:00,72.0,61.7,29.84,ENE,68,3.0,8.0,70,0.00,,,0.00,VWS V14.01,2013-03-20 02:39:00,
2013-03-19 21:44:00,72.0,61.7,29.85,ENE,67,4.0,9.0,70,0.00,,,0.00,VWS V14.01,2013-03-20 02:44:00,
2013-03-19 21:49:00,71.9,61.2,29.85,ENE,70,3.0,9.0,69,0.00,,,0.00,VWS V14.01,2013-03-20 02:49:00,
2013-03-19 21:54:00,71.9,61.2,29.85,NNE,12,3.0,9.0,69,0.00,,,0.00,VWS V14.01,2013-03-20 02:54:00,
2013-03-19 21:59:00,71.9,61.2,29.85,East,94,5.0,9.0,69,0.00,,,0.00,VWS V14.01,2013-03-20 02:59:00,
2013-03-19 22:04:00,71.9,61.2,29.86,ENE,72,4.0,9.0,69,0.00,,,0.00,VWS V14.01,2013-03-20 03:04:00,
2013-03-19 22:09:00,71.8,61.1,29.86,North,1,4.0,9.0,69,0.00,,,0.00,VWS V14.01,2013-03-20 03:09:00,
2013-03-19 22:14:00,71.8,60.7,29.86,NE,39,3.0,9.0,68,0.00,,,0.00,VWS V14.01,2013-03-20 03:14:00,
2013-03-19 22:19:00,71.7,60.6,29.86,ENE,72,2.0,9.0,68,0.00,,,0.00,VWS V14.01,2013-03-20 03:19:00,
2013-03-19 22:24:00,71.7,60.6,29.86,NE,56,4.0,9.0,68,0.00,,,0.00,VWS V14.01,2013-03-20 03:24:00,
2013-03-19 22:29:00,71.7,60.6,29.86,NE,54,4.0,9.0,68,0.00,,,0.00,VWS V14.01,2013-03-20 03:29:00,
2013-03-19 22:34:00,71.7,60.6,29.86,NE,51,2.0,7.0,68,0.00,,,0.00,VWS V14.01,2013-03-20 03:34:00,
2013-03-19 22:39:00,71.5,60.4,29.86,NE,38,2.0,7.0,68,0.00,,,0.00,VWS V14.01,2013-03-20 03:39:00,
2013-03-19 22:44:00,71.5,60.4,29.86,ENE,63,2.0,7.0,68,0.00,,,0.00,VWS V14.01,2013-03-20 03:44:00,
2013-03-19 22:49:00,71.3,60.6,29.87,ENE,65,3.0,7.0,69,0.00,,,0.00,VWS V14.01,2013-03-20 03:49:00,
2013-03-19 22:54:00,71.1,60.4,29.87,ENE,72,3.0,7.0,69,0.00,,,0.00,VWS V14.01,2013-03-20 03:54:00,
2013-03-19 22:59:00,70.5,60.3,29.87,East,88,3.0,7.0,70,0.00,,,0.00,VWS V14.01,2013-03-20 03:59:00,
2013-03-19 23:00:00,70.5,60.3,29.87,ENE,71,3.0,7.0,70,0.00,,,0.00,VWS V14.01,2013-03-20 04:00:00,
2013-03-19 23:05:00,70.3,60.5,29.87,ENE,75,2.0,6.0,71,0.00,,,0.00,VWS V14.01,2013-03-20 04:05:00,
2013-03-19 23:10:00,70.3,60.5,29.87,East,101,3.0,7.0,71,0.00,,,0.00,VWS V14.01,2013-03-20 04:10:00,
2013-03-19 23:15:00,70.1,60.7,29.87,North,9,2.0,7.0,72,0.00,,,0.00,VWS V14.01,2013-03-20 04:15:00,
2013-03-19 23:20:00,69.9,60.9,29.88,ENE,75,3.0,7.0,73,0.00,,,0.00,VWS V14.01,2013-03-20 04:20:00,
2013-03-19 23:25:00,69.6,61.0,29.88,North,8,2.0,7.0,74,0.00,,,0.00,VWS V14.01,2013-03-20 04:25:00,
2013-03-19 23:30:00,69.2,61.0,29.88,East,82,3.0,3.0,75,0.00,,,0.00,VWS V14.01,2013-03-20 04:30:00,
2013-03-19 23:35:00,68.8,60.9,29.88,NE,41,1.0,4.0,76,0.00,,,0.00,VWS V14.01,2013-03-20 04:35:00,
2013-03-19 23:40:00,68.5,61.0,29.89,NE,42,1.0,4.0,77,0.00,,,0.00,VWS V14.01,2013-03-20 04:40:00,
2013-03-19 23:45:00,68.5,61.7,29.89,ENE,60,1.0,9.0,79,0.00,,,0.00,VWS V14.01,2013-03-20 04:45:00,
2013-03-19 23:50:00,68.4,61.3,29.90,NE,41,2.0,9.0,78,0.00,,,0.00,VWS V14.01,2013-03-20 04:50:00,
2013-03-19 23:55:00,68.1,61.7,29.90,ENE,58,2.0,9.0,80,0.00,,,0.00,VWS V14.01,2013-03-20 04:55:00,